Weather History for Melfa, VA

Change the Weather History Date:

Sunday, October 20, 2013

  Actual Average (KWAL) Record (KWAL)
Temperature  
Mean Temperature 58 °F 58 °F  
Max Temperature 69 °F 67 °F 80 °F (1984)
Min Temperature 46 °F 49 °F 29 °F (1974)
Degree Days  
Heating Degree Days 6    
Month to date heating degree days  
Since 1 July heating degree days  
Cooling Degree Days 0    
Month to date cooling degree days  
Year to date cooling degree days  
Growing Degree Days 8 (Base 50)    
Moisture  
Dew Point 46 °F    
Average Humidity 61    
Maximum Humidity 93    
Minimum Humidity 37    
Precipitation  
Precipitation 0.00 in 0.09 in 1.06 in (1999)
Month to date precipitation 2.02  
Year to date precipitation 33.39  
Sea Level Pressure  
Sea Level Pressure 30.02 in    
Wind  
Wind Speed 8 mph (NW)    
Max Wind Speed 17 mph    
Max Gust Speed 22 mph    
Visibility 10 miles    
Events      
T = Trace of Precipitation, MM = Missing Value Source: NWS Daily Summary

Daily Weather History Graph

Daily Weather History Graph

Search for Another Location

Airport:

Trip Planner

Search our weather history database for the weather conditions in past years. The results will help you decide how hot, cold, wet, or windy it might be!

Date:

Astronomy

Oct. 20, 2013 Rise Set
Actual Time 7:16 AM EDT 6:18 PM EDT
Civil Twilight 6:49 AM EDT 6:45 PM EDT
Nautical Twilight 6:19 AM EDT 7:15 PM EDT
Astronomical Twilight 5:48 AM EDT 7:46 PM EDT
Moon 7:27 PM EDT (10/20) 8:49 AM EDT (10/20)
Length of Visible Light 11h 55m
Length of Day
11h 02m
Full, 97% of the Moon is Illuminated
Oct 20
Full
Oct 26
Last Quarter
Nov 3
New
Nov 10
First Quarter
Nov 17
Full

Hourly Weather History & Observations

Time (EDT) Temp. Windchill Dew Point Humidity Pressure Visibility Wind Dir Wind Speed Gust Speed Precip Events Conditions
12:16 AM 69.8 °F - 64.4 °F 83% 29.85 in 10.0 mi West 9.2 mph 16.1 mph N/A   Clear
12:58 AM 69.8 °F - 64.4 °F 83% 29.86 in 10.0 mi WNW 10.4 mph - N/A   Scattered Clouds
1:35 AM 68.0 °F - 62.6 °F 83% 29.87 in 10.0 mi WNW 10.4 mph 18.4 mph N/A   Mostly Cloudy
2:15 AM 66.2 °F - 60.8 °F 83% 29.88 in 10.0 mi WNW 11.5 mph - N/A   Mostly Cloudy
2:35 AM 66.2 °F - 60.8 °F 83% 29.88 in 10.0 mi NW 8.1 mph - N/A   Mostly Cloudy
2:55 AM 66.2 °F - 60.8 °F 83% 29.88 in 10.0 mi WNW 6.9 mph - N/A   Scattered Clouds
3:15 AM 66.2 °F - 60.8 °F 83% 29.88 in 10.0 mi NW 6.9 mph - N/A   Scattered Clouds
3:38 AM 66.2 °F - 60.8 °F 83% 29.89 in 10.0 mi NW 4.6 mph - N/A   Scattered Clouds
3:56 AM 66.2 °F - 59.0 °F 78% 29.89 in 10.0 mi NW 3.5 mph - N/A   Mostly Cloudy
4:17 AM 66.2 °F - 55.4 °F 68% 29.90 in 10.0 mi NW 10.4 mph - N/A   Mostly Cloudy
4:35 AM 64.4 °F - 55.4 °F 73% 29.91 in 10.0 mi NNW 9.2 mph 17.3 mph N/A   Scattered Clouds
4:55 AM 64.4 °F - 53.6 °F 68% 29.93 in 10.0 mi NNW 17.3 mph 21.9 mph N/A   Clear
5:15 AM 62.6 °F - 50.0 °F 63% 29.94 in 10.0 mi NNW 10.4 mph 18.4 mph N/A   Scattered Clouds
5:35 AM 62.6 °F - 48.2 °F 59% 29.95 in 10.0 mi NNW 9.2 mph 19.6 mph N/A   Clear
6:15 AM 60.8 °F - 42.8 °F 52% 29.97 in 10.0 mi NNW 11.5 mph 17.3 mph N/A   Clear
6:36 AM 60.8 °F - 44.6 °F 55% 29.98 in 10.0 mi NNW 10.4 mph 18.4 mph N/A   Clear
6:55 AM 59.0 °F - 42.8 °F 55% 29.99 in 10.0 mi NNW 15.0 mph 21.9 mph N/A   Clear
7:15 AM 59.0 °F - 41.0 °F 51% 29.99 in 10.0 mi NNW 11.5 mph 18.4 mph N/A   Clear
7:55 AM 57.2 °F - 42.8 °F 59% 30.01 in 10.0 mi NNW 8.1 mph 17.3 mph N/A   Clear
8:37 AM 60.8 °F - 44.6 °F 55% 30.04 in 10.0 mi North 10.4 mph 17.3 mph N/A   Clear
9:17 AM 60.8 °F - 42.8 °F 52% 30.06 in 10.0 mi North 13.8 mph 19.6 mph N/A   Clear
9:36 AM 60.8 °F - 39.2 °F 45% 30.07 in 10.0 mi North 11.5 mph 19.6 mph N/A   Clear
10:16 AM 62.6 °F - 39.2 °F 42% 30.07 in 10.0 mi NNW 12.7 mph 19.6 mph N/A   Clear
10:37 AM 62.6 °F - 41.0 °F 45% 30.07 in 10.0 mi North 9.2 mph - N/A   Clear
10:55 AM 62.6 °F - 41.0 °F 45% 30.07 in 10.0 mi NW 10.4 mph 16.1 mph N/A   Clear
11:15 AM 62.6 °F - 42.8 °F 48% 30.08 in 10.0 mi NNW 8.1 mph 16.1 mph N/A   Clear
11:37 AM 64.4 °F - 41.0 °F 42% 30.08 in 10.0 mi North 5.8 mph 18.4 mph N/A   Clear
11:55 AM 62.6 °F - 39.2 °F 42% 30.08 in 10.0 mi NW 10.4 mph 17.3 mph N/A   Clear
12:35 PM 64.4 °F - 39.2 °F 40% 30.08 in 10.0 mi NNW 12.7 mph 19.6 mph N/A   Clear
12:57 PM 64.4 °F - 39.2 °F 40% 30.08 in 10.0 mi NNW 9.2 mph - N/A   Clear
1:16 PM 64.4 °F - 39.2 °F 40% 30.08 in 10.0 mi NNW 6.9 mph 17.3 mph N/A   Clear
1:35 PM 64.4 °F - 39.2 °F 40% 30.07 in 10.0 mi North 5.8 mph - N/A   Clear
1:57 PM 66.2 °F - 39.2 °F 37% 30.06 in 10.0 mi NW 9.2 mph - N/A   Clear
2:36 PM 64.4 °F - 39.2 °F 40% 30.05 in 10.0 mi North 4.6 mph - N/A   Clear
2:55 PM 64.4 °F - 41.0 °F 42% 30.06 in 10.0 mi NNW 9.2 mph - N/A   Clear
3:16 PM 64.4 °F - 41.0 °F 42% 30.06 in 10.0 mi NNW 5.8 mph - N/A   Clear
3:36 PM 64.4 °F - 41.0 °F 42% 30.06 in 10.0 mi North 5.8 mph - N/A   Clear
3:55 PM 64.4 °F - 39.2 °F 40% 30.06 in 10.0 mi NNW 4.6 mph - N/A   Clear
4:16 PM 64.4 °F - 39.2 °F 40% 30.06 in 10.0 mi NW 6.9 mph - N/A   Clear
4:36 PM 64.4 °F - 39.2 °F 40% 30.06 in 10.0 mi North 6.9 mph - N/A   Clear
5:16 PM 64.4 °F - 37.4 °F 37% 30.06 in 10.0 mi North 3.5 mph - N/A   Clear
5:37 PM 64.4 °F - 39.2 °F 40% 30.07 in 10.0 mi NNW 3.5 mph - N/A   Clear
5:55 PM 62.6 °F - 42.8 °F 48% 30.07 in 10.0 mi Calm Calm - N/A   Clear
6:15 PM 57.2 °F - 46.4 °F 67% 30.08 in 10.0 mi Calm Calm - N/A   Clear
6:38 PM 55.4 °F - 46.4 °F 72% 30.09 in 10.0 mi Calm Calm - N/A   Clear
6:57 PM 53.6 °F - 46.4 °F 77% 30.09 in 10.0 mi Calm Calm - N/A   Clear
7:15 PM 53.6 °F - 46.4 °F 77% 30.10 in 10.0 mi Calm Calm - N/A   Clear
7:55 PM 51.8 °F - 46.4 °F 82% 30.10 in 10.0 mi Calm Calm - N/A   Clear
8:15 PM 51.8 °F - 46.4 °F 82% 30.10 in 10.0 mi SSW 3.5 mph - N/A   Clear
8:36 PM 50.0 °F - 46.4 °F 87% 30.11 in 10.0 mi SSW 3.5 mph - N/A   Clear
8:55 PM 50.0 °F - 46.4 °F 87% 30.11 in 10.0 mi SSW 3.5 mph - N/A   Clear
9:37 PM 48.2 °F - 44.6 °F 87% 30.12 in 10.0 mi SSW 3.5 mph - N/A   Clear
10:17 PM 48.2 °F - 44.6 °F 87% 30.13 in 10.0 mi Calm Calm - N/A   Clear
11:17 PM 48.2 °F - 44.6 °F 87% 30.13 in 10.0 mi Calm Calm - N/A   Clear
11:55 PM 46.4 °F 45.2 °F 44.6 °F 93% 30.13 in 10.0 mi SSW 3.5 mph - N/A   Clear